Tracking 32139 objects as of 18-Nov-2025
HD Live streaming from Space Station
objects crossing your sky now

STARLINK-35195

Track STARLINK-35195 now!
10-day predictions
STARLINK-35195 is classified as:


NORAD ID: 65606
Int'l Code: 2025-207Q
Perigee: 453.4 km
Apogee: 456.9 km
Inclination: 97.6 °
Period: 93.5 minutes
Semi major axis: 6826 km
RCS: Unknown
Launch date: September 13, 2025
Source: United States (US)
Launch site: AIR FORCE EASTERN TEST RANGE (AFETR)
Your satellite tracking list
Your tracking list is empty




NASA's NSSDC Master Catalog

Two Line Element Set (TLE):
1 65606U 25207Q   25321.65335154  .00080070  00000-0  20332-2 0  9991
2 65606  97.6045  26.5273 0002518  75.1057 285.0466 15.39351742 11296
Source of the keplerian elements: AFSPC